This demonstration page uses our WeatherBlox Daily Observations layout. Learn more.

Left ArrowRight Arrow

39.51506, -84.39828

Hourly Observations for March 18, 2015

Temp ( °F °C ) Dew Point ( °F °C ) Humidity (%) Winds ( mph kmh ) Pressure ( in mb ) Visibility ( mi km ) Precip ( " mm )
12:15 am 00:15 Clear 34 1.2 13 -10.6 41 41 N 6 9 30.36 1028 10 16 N/A
12:35 am 00:35 Clear 34 1.2 13 -10.4 42 42 NNE 5 7 30.36 1028 10 16 N/A
12:55 am 00:55 Clear 34 1.2 14 -9.9 44 44 N 3 6 30.36 1028 10 16 N/A
1:15 am 01:15 Clear 34 1.2 15 -9.5 45 45 N 3 6 30.36 1028 10 16 N/A
1:35 am 01:35 Clear 34 1.2 15 -9.4 46 46 N N/A 30.36 1028 10 16 N/A
1:55 am 01:55 Clear 34 1.2 15 -9.4 46 46 N N/A 30.36 1028 10 16 N/A
2:15 am 02:15 Clear 34 1.2 16 -8.8 48 48 N 5 7 30.36 1028 10 16 N/A
2:35 am 02:35 Clear 34 1.2 16 -8.7 48 48 N 7 11 30.36 1028 10 16 N/A
2:55 am 02:55 Clear 34 1.2 16 -9.1 47 47 N 6 9 30.36 1028 10 16 N/A
3:15 am 03:15 Clear 34 1.2 16 -8.8 48 48 N 6 9 30.36 1028 10 16 N/A
3:35 am 03:35 Clear 34 1.2 16 -8.8 48 48 N 3 6 30.36 1028 10 16 N/A
3:55 am 03:55 Clear 34 1.2 16 -8.7 48 48 NNE 5 7 30.36 1028 10 16 N/A
4:15 am 04:15 Clear 33 0.5 16 -9 49 49 NNE 5 7 30.36 1028 10 16 N/A
4:35 am 04:35 Clear 32 -0.1 15 -9.2 51 51 NNE 5 7 30.36 1028 10 16 N/A
4:55 am 04:55 Clear 29 -1.4 15 -9.5 54 54 NE 3 6 30.36 1028 10 16 N/A
5:15 am 05:15 Clear 31 -0.7 15 -9.4 52 52 NNE 3 6 30.36 1028 10 16 N/A
5:35 am 05:35 Clear 31 -0.8 16 -8.7 55 55 NE 3 6 30.36 1028 10 16 N/A
5:55 am 05:55 Clear 29 -1.5 17 -8.2 61 61 NE 3 6 30.36 1028 10 16 N/A
6:15 am 06:15 Clear 29 -1.5 18 -7.9 62 62 NE 3 6 30.36 1028 10 16 N/A
6:35 am 06:35 Clear 29 -1.5 17 -8.3 60 60 NE 3 6 30.36 1028 10 16 N/A
6:55 am 06:55 Clear 29 -1.5 17 -8.3 60 60 E 3 6 30.36 1028 10 16 N/A
7:15 am 07:15 Clear 29 -1.5 17 -8.4 60 60 N N/A 30.36 1028 10 16 N/A
7:35 am 07:35 Clear 29 -1.5 19 -7.2 66 66 N N/A 30.39 1029 10 16 N/A
7:55 am 07:55 Sunny 29 -1.5 20 -6.7 68 68 N N/A 30.39 1029 10 16 N/A
8:15 am 08:15 Sunny 27 -2.7 20 -6.9 73 73 N N/A 30.39 1029 10 16 N/A
8:35 am 08:35 Sunny 29 -1.5 22 -5.6 74 74 N N/A 30.39 1029 10 16 N/A
8:55 am 08:55 Sunny 32 undefined 21 -6.3 63 63 N N/A 30.42 1030 10 16 N/A
9:15 am 09:15 Sunny 34 1.2 18 -7.8 52 52 N N/A 30.42 1030 10 16 N/A
9:35 am 09:35 Sunny 34 1.2 16 -9 47 47 N N/A 30.42 1030 10 16 N/A
9:55 am 09:55 Sunny 36 2.4 16 -9 43 43 N N/A 30.45 1031 10 16 N/A
10:15 am 10:15 Sunny 37 3 13 -10.5 37 37 N N/A 30.42 1030 10 16 N/A
10:35 am 10:35 Sunny 39 4 11 -11.4 32 32 N N/A 30.42 1030 10 16 N/A
10:55 am 10:55 Sunny 39 4.1 7 -13.9 26 26 N N/A 30.42 1030 10 16 N/A
11:15 am 11:15 Sunny 40 4.7 6 -14.7 23 23 ENE 3 6 30.39 1029 10 16 N/A
11:35 am 11:35 Sunny 42 5.4 6 -14.4 23 23 ESE 8 13 30.39 1029 10 16 N/A
11:55 am 11:55 Sunny 42 5.8 5 -15 21 21 ENE 5 7 30.39 1029 10 16 N/A
12:15 pm 12:15 Sunny 44 6.4 6 -14.4 21 21 NE 13 20 30.39 1029 10 16 N/A
12:35 pm 12:35 Sunny 45 7.2 5 -15.1 19 19 ESE 7 11 30.36 1028 10 16 N/A
12:55 pm 12:55 Sunny 44 6.8 4 -15.8 18 18 N 6 9 30.36 1028 10 16 N/A
1:15 pm 13:15 Sunny 44 6.8 3 -16.2 18 18 E 6 9 30.33 1027 10 16 N/A
1:35 pm 13:35 Sunny 46 7.8 4 -15.3 18 18 N 3 6 30.33 1027 10 16 N/A
1:55 pm 13:55 Sunny 49 9.6 5 -14.8 16 16 SE 3 6 30.33 1027 10 16 N/A
2:15 pm 14:15 Sunny 49 9.6 6 -14.2 17 17 E 5 7 30.30 1026 10 16 N/A
2:35 pm 14:35 Sunny 49 9.6 6 -14.7 17 17 E 9 15 30.30 1026 10 16 N/A
2:55 pm 14:55 Sunny 49 9.6 6 -14.4 17 17 E 8 13 30.27 1025 10 16 N/A
3:15 pm 15:15 Sunny 49 9.6 4 -15.3 16 16 N N/A 30.27 1025 10 16 N/A
3:35 pm 15:35 Sunny 49 9.6 4 -15.4 16 16 NE 5 7 30.27 1025 10 16 N/A
3:55 pm 15:55 Sunny 49 9.6 2 -16.5 14 14 N 6 9 30.27 1025 10 16 N/A
4:15 pm 16:15 Sunny 49 9.6 2 -16.5 14 14 N N/A 30.27 1025 10 16 N/A
4:35 pm 16:35 Sunny 49 9.6 2 -16.9 14 14 E 3 6 30.27 1025 10 16 N/A
4:55 pm 16:55 Sunny 49 9.6 3 -15.9 15 15 N N/A 30.24 1024 10 16 N/A
5:15 pm 17:15 Sunny 49 9.6 1 -17.5 13 13 SE 5 7 30.24 1024 10 16 N/A
5:35 pm 17:35 Sunny 49 9.6 4 -15.6 15 15 N N/A 30.24 1024 10 16 N/A
5:55 pm 17:55 Sunny 49 9.6 4 -15.4 16 16 N N/A 30.24 1024 10 16 N/A
6:15 pm 18:15 Sunny 49 9.6 5 -15.2 16 16 N N/A 30.24 1024 10 16 N/A
6:35 pm 18:35 Sunny 49 9.6 5 -14.8 16 16 N N/A 30.24 1024 10 16 N/A
6:55 pm 18:55 Sunny 49 9.6 6 -14.3 17 17 N N/A 30.27 1025 10 16 N/A
7:15 pm 19:15 Sunny 49 9.6 8 -13.2 19 19 NNE 5 7 30.27 1025 10 16 N/A
7:35 pm 19:35 Sunny 49 9.6 12 -11.3 22 22 N 5 7 30.27 1025 10 16 N/A
7:55 pm 19:55 Clear 47 8.3 12 -11.3 24 24 NNE 5 7 30.27 1025 10 16 N/A
8:15 pm 20:15 Clear 47 8.2 13 -10.8 25 25 N 5 7 30.27 1025 10 16 N/A
8:35 pm 20:35 Clear 45 7.3 12 -10.9 26 26 N N/A 30.27 1025 10 16 N/A
8:55 pm 20:55 Clear 44 6.6 14 -10.1 29 29 N N/A 30.27 1025 10 16 N/A
9:15 pm 21:15 Clear 44 6.7 14 -9.9 30 30 N N/A 30.27 1025 10 16 N/A
9:35 pm 21:35 Clear 44 6.4 14 -9.9 30 30 N N/A 30.30 1026 10 16 N/A
9:55 pm 21:55 Clear 42 5.8 18 -7.6 38 38 N N/A 30.30 1026 10 16 N/A
10:15 pm 22:15 Clear 42 5.5 22 -5.6 45 45 N N/A 30.30 1026 10 16 N/A
10:35 pm 22:35 Clear 40 4.7 25 -4.1 53 53 N N/A 30.30 1026 10 16 N/A
10:55 pm 22:55 Partly Cloudy 40 4.7 26 -3.6 55 55 N N/A 30.30 1026 10 16 N/A
11:15 pm 23:15 Clear 40 4.7 27 -2.8 59 59 N N/A 30.30 1026 10 16 N/A
11:35 pm 23:35 Clear 39 4 27 -2.6 62 62 N N/A 30.30 1026 10 16 N/A
11:55 pm 23:55 Clear 39 4 27 -3 61 61 NNE 3 6 30.27 1025 10 16 N/A

Powered by AerisWeather